Location: *
(51.0333°S, 178.4667°E)
Time: 14:33:24
(UTC+00:00)

Meteor 1-21 - Pass Details

Date: 15 November 2019
Orbit: 844 x 888 km, 81.2° (Epoch: 04 December)

Event Time Altitude Azimuth Distance (km) Brightness Sun altitude
Rises 11:00:18 0° 192° (SSW) 3,449 9.0 -19.6°
Reaches altitude 10° 11:02:45 10° 190° (S) 2,506 7.9 -19.7°
Maximum altitude 11:08:27 76° 104° (ESE) 887 4.2 -19.9°
Enters shadow 11:10:46 37° 25° (NNE) 1,305 4.7 -19.9°
